When you browse on this site, cookies collect data to enhance your experience and personalize the content and advertising you see.
Visit our Privacy Policy to learn more. By continuing to use the site, you agree to this use of cookies and data.
EN

Hourly Weather Bystrzyca Gorna

Today, 24 September, Thursday

Time Temperature Precipitation Wind Pressure Humidity
00:00 +16°C° 0 mm 2 mps 727 mmHg 91%
01:00 +16°C° 0 mm 2 mps 727 mmHg 90%
02:00 +15°C° 0 mm 2 mps 727 mmHg 91%
03:00 +15°C° 0 mm 2 mps 727 mmHg 92%
04:00 +15°C° 0 mm 2 mps 727 mmHg 93%
05:00 +15°C° 0 mm 2 mps 728 mmHg 92%
06:00 +14°C° 0 mm 3 mps 728 mmHg 90%
07:00 +16°C° 0 mm 3 mps 728 mmHg 85%
08:00 +18°C° 0 mm 3 mps 728 mmHg 78%
09:00 +19°C° 0 mm 4 mps 728 mmHg 71%
10:00 +21°C° 0 mm 5 mps 729 mmHg 64%
11:00 +22°C° 0 mm 5 mps 729 mmHg 60%
12:00 +23°C° 0 mm 5 mps 729 mmHg 56%
13:00 +25°C° 0 mm 5 mps 729 mmHg 52%
14:00 +23°C° 0.2 mm 4 mps 728 mmHg 55%
15:00 +24°C° 0.2 mm 3 mps 728 mmHg 59%
16:00 +23°C° 0.2 mm 2 mps 728 mmHg 62%
17:00 +21°C° 0 mm 2 mps 728 mmHg 68%
18:00 +19°C° 0 mm 2 mps 728 mmHg 74%
19:00 +18°C° 0 mm 1 mps 728 mmHg 80%
20:00 +18°C° 0 mm 1 mps 728 mmHg 81%
21:00 +18°C° 0 mm 1 mps 727 mmHg 82%
22:00 +16°C° 0 mm 1 mps 727 mmHg 83%
23:00 +16°C° 0 mm 1 mps 726 mmHg 84%

Tomorrow, 25 September, Friday

Time Temperature Precipitation Wind Pressure Humidity
00:00 +15°C° 0 mm 1 mps 726 mmHg 85%
01:00 +15°C° 0 mm 1 mps 725 mmHg 85%
02:00 +15°C° 0 mm 2 mps 724 mmHg 85%
03:00 +15°C° 0 mm 2 mps 723 mmHg 84%
04:00 +15°C° 0 mm 2 mps 723 mmHg 83%
05:00 +16°C° 0.2 mm 2 mps 722 mmHg 83%
06:00 +16°C° 0.2 mm 3 mps 721 mmHg 83%
07:00 +15°C° 0.2 mm 4 mps 721 mmHg 83%
08:00 +15°C° 0.5 mm 4 mps 721 mmHg 85%
09:00 +16°C° 0.5 mm 3 mps 721 mmHg 87%
10:00 +16°C° 0.5 mm 3 mps 721 mmHg 89%
11:00 +16°C° 0.8 mm 3 mps 721 mmHg 90%
12:00 +14°C° 0.8 mm 3 mps 721 mmHg 90%
13:00 +13°C° 0.8 mm 3 mps 721 mmHg 90%
14:00 +14°C° 0.2 mm 2 mps 721 mmHg 90%
15:00 +14°C° 0.2 mm 2 mps 721 mmHg 90%
16:00 +14°C° 0.2 mm 1 mps 721 mmHg 89%
17:00 +14°C° 0.1 mm 1 mps 721 mmHg 90%
18:00 +13°C° 0.1 mm 1 mps 721 mmHg 91%
19:00 +13°C° 0.1 mm 2 mps 721 mmHg 92%
20:00 +13°C° 0 mm 2 mps 721 mmHg 91%
21:00 +12°C° 0 mm 2 mps 721 mmHg 91%
22:00 +12°C° 0 mm 2 mps 721 mmHg 90%
23:00 +12°C° 0.3 mm 2 mps 720 mmHg 91%

Day after tomorrow, 26 September, Saturday

Time Temperature Precipitation Wind Pressure Humidity
00:00 +10°C° 0.3 mm 2 mps 720 mmHg 92%
01:00 +10°C° 0.3 mm 3 mps 719 mmHg 93%
02:00 +10°C° 1 mm 3 mps 718 mmHg 94%
03:00 +11°C° 1 mm 3 mps 718 mmHg 96%
04:00 +11°C° 1 mm 4 mps 717 mmHg 97%
05:00 +11°C° 4.5 mm 4 mps 716 mmHg 97%
06:00 +11°C° 4.5 mm 4 mps 716 mmHg 97%
07:00 +12°C° 4.5 mm 4 mps 715 mmHg 97%
08:00 +12°C° 1.1 mm 3 mps 716 mmHg 96%
09:00 +14°C° 1.1 mm 2 mps 716 mmHg 96%
10:00 +14°C° 1.1 mm 1 mps 716 mmHg 95%
11:00 +13°C° 0.1 mm 3 mps 717 mmHg 89%
12:00 +14°C° 0.1 mm 5 mps 717 mmHg 83%
13:00 +14°C° 0.1 mm 6 mps 717 mmHg 78%
14:00 +13°C° 0 mm 6 mps 718 mmHg 78%
15:00 +10°C° 0 mm 6 mps 719 mmHg 78%
16:00 +9°C° 0 mm 6 mps 719 mmHg 78%
17:00 +8°C° 0 mm 5 mps 720 mmHg 80%
18:00 +7°C° 0 mm 5 mps 721 mmHg 81%
19:00 +7°C° 0 mm 4 mps 721 mmHg 82%
20:00 +6°C° 0 mm 4 mps 722 mmHg 82%
21:00 +6°C° 0 mm 4 mps 722 mmHg 82%
22:00 +7°C° 0 mm 3 mps 722 mmHg 81%
23:00 +7°C° 0 mm 3 mps 722 mmHg 82%

27 September, Sunday

Time Temperature Precipitation Wind Pressure Humidity
00:00 +7°C° 0 mm 3 mps 722 mmHg 83%
01:00 +7°C° 0 mm 2 mps 722 mmHg 84%
02:00 +7°C° 0 mm 2 mps 722 mmHg 85%
03:00 +6°C° 0 mm 2 mps 722 mmHg 86%
04:00 +7°C° 0 mm 1 mps 721 mmHg 87%
05:00 +6°C° 0.1 mm 2 mps 721 mmHg 87%
06:00 +7°C° 0.1 mm 2 mps 721 mmHg 87%
07:00 +7°C° 0.1 mm 2 mps 721 mmHg 87%
08:00 +7°C° 1 mm 3 mps 721 mmHg 88%
09:00 +6°C° 1 mm 4 mps 720 mmHg 90%
10:00 +6°C° 1 mm 4 mps 720 mmHg 92%
11:00 +7°C° 1.6 mm 5 mps 720 mmHg 91%
12:00 +7°C° 1.6 mm 5 mps 720 mmHg 91%
13:00 +7°C° 1.6 mm 5 mps 720 mmHg 90%
14:00 +7°C° 1.8 mm 6 mps 720 mmHg 91%
15:00 +8°C° 1.8 mm 6 mps 719 mmHg 91%
16:00 +8°C° 1.8 mm 7 mps 719 mmHg 92%
17:00 +8°C° 2 mm 7 mps 719 mmHg 92%
18:00 +8°C° 2 mm 7 mps 719 mmHg 92%
19:00 +8°C° 2 mm 7 mps 719 mmHg 91%
20:00 +8°C° 0.9 mm 7 mps 719 mmHg 92%
21:00 +8°C° 0.9 mm 7 mps 719 mmHg 92%
22:00 +8°C° 0.9 mm 6 mps 719 mmHg 93%
23:00 +9°C° 0.7 mm 6 mps 719 mmHg 94%

28 September, Monday

Time Temperature Precipitation Wind Pressure Humidity
00:00 +9°C° 0.7 mm 5 mps 719 mmHg 95%
01:00 +9°C° 0.7 mm 5 mps 719 mmHg 96%
02:00 +8°C° 0.1 mm 4 mps 719 mmHg 95%
03:00 +8°C° 0.1 mm 4 mps 719 mmHg 95%
04:00 +8°C° 0.1 mm 4 mps 719 mmHg 94%
05:00 +8°C° 0.1 mm 4 mps 720 mmHg 94%
06:00 +8°C° 0.1 mm 4 mps 720 mmHg 93%
07:00 +8°C° 0.1 mm 4 mps 720 mmHg 93%
08:00 +8°C° 0.1 mm 4 mps 721 mmHg 91%
09:00 +8°C° 0.1 mm 5 mps 721 mmHg 90%
10:00 +8°C° 0.1 mm 5 mps 722 mmHg 89%
11:00 +8°C° 0.4 mm 5 mps 722 mmHg 88%
12:00 +9°C° 0.4 mm 5 mps 723 mmHg 88%
13:00 +9°C° 0.4 mm 5 mps 724 mmHg 87%
14:00 +9°C° 0.8 mm 5 mps 724 mmHg 88%
15:00 +8°C° 0.8 mm 5 mps 724 mmHg 90%
16:00 +8°C° 0.8 mm 5 mps 725 mmHg 91%
17:00 +8°C° 0.6 mm 5 mps 725 mmHg 92%
18:00 +8°C° 0.6 mm 4 mps 726 mmHg 93%
19:00 +8°C° 0.6 mm 4 mps 726 mmHg 93%
20:00 +8°C° 0.2 mm 4 mps 727 mmHg 94%
21:00 +8°C° 0.2 mm 4 mps 727 mmHg 94%
22:00 +8°C° 0.2 mm 4 mps 728 mmHg 94%
23:00 +8°C° 0.2 mm 4 mps 728 mmHg 94%

29 September, Tuesday

Time Temperature Precipitation Wind Pressure Humidity
00:00 +8°C° 0.2 mm 4 mps 728 mmHg 94%
01:00 +8°C° 0.2 mm 4 mps 729 mmHg 95%
02:00 +8°C° 0.2 mm 4 mps 729 mmHg 95%
03:00 +8°C° 0.2 mm 4 mps 729 mmHg 95%
04:00 +8°C° 0.2 mm 4 mps 729 mmHg 95%
05:00 +8°C° 0.1 mm 4 mps 730 mmHg 95%
06:00 +8°C° 0.1 mm 4 mps 730 mmHg 94%
07:00 +8°C° 0.1 mm 4 mps 731 mmHg 94%
08:00 +8°C° 0 mm 4 mps 731 mmHg 91%
09:00 +10°C° 0 mm 4 mps 731 mmHg 88%
10:00 +10°C° 0 mm 5 mps 731 mmHg 85%
11:00 +10°C° 0 mm 5 mps 732 mmHg 82%
12:00 +12°C° 0 mm 5 mps 732 mmHg 79%
13:00 +13°C° 0 mm 5 mps 732 mmHg 77%
14:00 +13°C° 0 mm 4 mps 732 mmHg 77%
15:00 +13°C° 0 mm 4 mps 732 mmHg 76%
16:00 +13°C° 0 mm 4 mps 732 mmHg 76%
17:00 +12°C° 0.1 mm 3 mps 733 mmHg 81%
18:00 +12°C° 0.1 mm 2 mps 733 mmHg 86%
19:00 +10°C° 0.1 mm 2 mps 733 mmHg 91%
20:00 +9°C° 0 mm 2 mps 733 mmHg 92%
21:00 +10°C° 0 mm 1 mps 734 mmHg 92%
22:00 +10°C° 0 mm 1 mps 734 mmHg 93%
23:00 +10°C° 0 mm 1 mps 734 mmHg 92%
Show more